AirNav   Air Wisconsin pilot careers
 
 1420 users online  

M20 Leitchfield-Grayson County Airport
Leitchfield, Kentucky, USA

GOING TO LEITCHFIELD?


FAA INFORMATION EFFECTIVE 08 NOVEMBER 2018

Location

FAA Identifier: M20
Lat/Long: 37-23-59.1000N / 086-15-40.6000W
37-23.985000N / 086-15.676667W
37.3997500 / -86.2612778
(estimated)
Elevation: 782 ft. / 238.4 m (surveyed)
Variation: 01W (1985)
From city: 4 miles SE of LEITCHFIELD, KY
Time zone: UTC -6 (UTC -5 during Daylight Saving Time)
Zip code: 42754

Airport Operations

Airport use: Open to the public
Activation date: 05/1978
Control tower: no
ARTCC: INDIANAPOLIS CENTER
FSS: LOUISVILLE FLIGHT SERVICE STATION
NOTAMs facility: LOU (NOTAM-D service available)
Attendance: UNATTENDED
Wind indicator: lighted
Segmented circle: yes
Lights: ACTVT MIRL RY 02/20 AND PAPI RYS 02 & 20 - CTAF.
Beacon: white-green (lighted land airport)
ACTVT ROTG BCN - CTAF.

Airport Communications

CTAF/UNICOM: 123.0
  • APCH/DEP SERVICE PROVIDED BY INDIANAPOLIS ARTCC ON FREQS 121.175/353.65 (NEW HOPE RCAG).

Nearby radio navigation aids

VOR radial/distance  VOR name  Freq  Var
BWGr015/29.6BOWLING GREEN VORTAC117.9002E
MYSr183/(29.7)MYSTIC VOR108.2001W
EWOr242/31.1NEW HOPE VOR/DME110.8001E
FTKr205/33.4FORT KNOX VOR/DME109.6001W

 
NDB name  Hdg/Dist  Freq  Var  ID
GODMAN205/36.239603WGOI --. --- ..

Airport Services

Fuel available: 100LL
FUEL AVAILBL 24HR W/CREDIT CARD.
Parking: hangars and tiedowns
Bottled oxygen: NONE
Bulk oxygen: NONE

Runway Information

Runway 2/20

Dimensions: 4000 x 60 ft. / 1219 x 18 m
Surface: asphalt, in good condition
Weight bearing capacity: 
Single wheel: 12.5
Runway edge lights: medium intensity
Gradient: 2% DOWNSLOPE FOR RY 20.
RUNWAY 2  RUNWAY 20
Latitude: 37-23.672992N37-24.297340N
Longitude: 086-15.807367W086-15.544372W
Elevation: 705.6 ft.782.0 ft.
Gradient: 1.9% UP1.5%
Traffic pattern: leftleft
Runway heading: 020 magnetic, 019 true200 magnetic, 199 true
Displaced threshold: 200 ft.no
Declared distances: LDA:3800
Markings: nonprecision, in good conditionnonprecision, in good condition
Visual slope indicator: 2-light PAPI on left (3.00 degrees glide path)2-light PAPI on left (3.00 degrees glide path)
Runway end identifier lights: yesyes
Touchdown point: yes, no lightsyes, no lights
Obstructions: none37 ft. road, 875 ft. from runway, 190 ft. left of centerline, 18:1 slope to clear

Airport Ownership and Management from official FAA records

Ownership: Publicly-owned
Owner: GRAYSON COUNTY AIRPORT BOARD
695 AIRPORT ROAD
LEITCHFIELD, KY 42754
Phone (502) 548-9282
ARPT BOARD CHAIRMAN: MARK COTTRELL
Manager: JOHN POPHAM
782 WHISPERING PINE CIRCLE
CLARKSON, KY 42754
Phone (270) 589-7251

Airport Operational Statistics

Aircraft based on the field: 14
Single engine airplanes: 14
    
Aircraft operations: avg 131/week *
44% transient general aviation
44% local general aviation
9% air taxi
4% military
* for 12-month period ending 21 November 2017

Instrument Procedures

There are no published instrument procedures at M20.

Some nearby airports with instrument procedures:

KEKX - Addington Field Airport (23 nm NE)
KGLW - Glasgow Municipal Airport (27 nm SE)
KBWG - Bowling Green-Warren County Regional Airport (27 nm S)
KJQD - Ohio County Airport (28 nm W)
KFTK - Godman Army Airfield (33 nm NE)
 
Loc | Ops | Rwys | IFR | FBO | Links
Com | Nav | Svcs | Stats | Notes


 
Area around M20 (Leitchfield-Grayson County Airport)
 
Road maps at: MapQuest Bing Google
 
Aerial photo
WARNING: Photo may not be current or correct
Aerial photo of M20 (Leitchfield-Grayson County Airport)
Do you have a better or more recent aerial photo of Leitchfield-Grayson County Airport that you would like to share? If so, please send us your photo.

 
Sectional chart

 
Airport distance calculator
Flying to Leitchfield-Grayson County Airport? Find the distance to fly.

From to M20

Sunrise and sunset
Times for 20-Nov-2018
 Local
(UTC-6)
 Zulu
(UTC)
Morning civil twilight06:0312:03
Sunrise06:3112:31
Sunset16:3122:31
Evening civil twilight16:5922:59

Current date and time
Zulu (UTC)  20-Nov-2018 18:34:17
Local (UTC-6)  20-Nov-2018 12:34:17
 
METAR
KGLW 
27nm SE 
201815Z AUTO 30005KT 10SM BKN022 OVC028 05/01 A3025 RMK AO2 T00510010
KEKX 
27nm NE 
201815Z AUTO 30006KT 10SM BKN017 BKN022 OVC031 04/00 A3025 RMK AO2 T00350001
KBWG 
27nm S 
201753Z AUTO 32005KT 10SM OVC021 06/01 A3027 RMK AO2 SLP253 T00560006 10061 20028 50002
KFTK 
32nm NE 
201756Z 31009KT 10SM OVC015 03/M01 A3026 RMK SLP255 T00301012 10051 20025 50010 CHINO RWY36 $
KKY8 
44nm NW 
201815Z AUTO 31007KT 10SM OVC019 02/M01 A3031 RMK A01
KBRY 
44nm NE 
201815Z AUTO 27008KT 10SM SCT021 SCT026 OVC032 04/00 A3023 RMK AO1
KM21 
44nm W 
201815Z AUTO 32006KT 10SM OVC020 02/M02 A3030 RMK AO2 T00201020
KAAS 
45nm E 
201815Z AUTO 27003KT 10SM OVC029 05/00 A3028 RMK AO1
KOWB 
47nm NW 
201756Z 33008KT 7SM BR OVC018 02/M03 A3032 RMK AO2 SLP281 T00171028 10039 20017 50009
K1M5 
50nm S 
201815Z AUTO 32006KT 10SM OVC017 05/02 A3026 RMK A01
TAF
KBWG 
27nm S 
201722Z 2018/2118 32007KT P6SM OVC022 FM202000 VRB03KT P6SM OVC026 FM210500 00000KT P6SM SKC FM211400 23006KT P6SM SKC
KFTK 
32nm NE 
201700Z 2017/2123 29012KT 9999 OVC015 620151 QNH3019INS BECMG 2023/2024 27009KT 9999 SKC QNH3024INS WND 21009KT AFT 2112 TX05/2021Z TNM03/2111Z
NOTAMs
Click for the latest NOTAMs
NOTAMs are issued by the DoD/FAA and will open in a separate window not controlled by AirNav.

 

 
 

FBO, Fuel Providers, and Aircraft Ground Support

  
 Business Name 
 
 Contact 
 
 Services / Description 
 
Fuel Prices
 
Comments
  
Grayson County Airport 270-242-7700
no information available

If you are affiliated with Grayson County Airport and would like to show here your services, contact info, web link, logo, and more, click here
100LL
SS $4.49 
 Updated 04-Oct-2018
 
   1 read write
SS=Self service
Update Fuel Prices
 

Would you like to see your business listed on this page?

 If your business provides an interesting product or service to pilots, flight crews, aircraft, or users of the Leitchfield-Grayson County Airport, you should consider listing it here.  To start the listing process, click on the button below
 
Add a business
 

Other Pages about Leitchfield-Grayson County Airport

Update a link
 
Copyright © AirNav, LLC. All rights reserved. Privacy Policy  Contact